Regional Weather Roundup
Issued by NWS

Home | Current Version | Previous Version | Text Only | Print | Product List | Glossary Off
Versions: 1 2 3 4 5 6 7 8 9 10 11 12 13 14 15 16 17 18 19 20 21 22 23 24 25 26 27 28 29 30 31 32 33 34 35 36 37 38 39 40 41 42 43 44 45 46 47 48 49 50

000
ASUS43 KFSD 230910
RWRSD

WEATHER ROUNDUP FOR SOUTH DAKOTA
NATIONAL WEATHER SERVICE SIOUX FALLS SD
400 AM CDT WED JUL 23 2014

NOTE: "FAIR" INDICATES FEW OR NO CLOUDS BELOW 12,000 FEET WITH NO
SIGNIFICANT WEATHER AND/OR OBSTRUCTIONS TO VISIBILITY.


SDZ001>005-009-010-012>017-231000-
NORTHWEST AND NORTH CENTRAL SOUTH DAKOTA

CITY           SKY/WX    TMP DP  RH WIND       PRES   REMARKS
BUFFALO          N/A     61  58  90 E9        30.16F
FAITH            N/A     64  61  90 SE14      30.21F
MOBRIDGE       PTCLDY    66  60  81 E8        30.21F
$$

SDZ012>016-024>037-041>051-057-063-072>074-231000-
SOUTHWEST AND SOUTH CENTRAL SOUTH DAKOTA

CITY           SKY/WX    TMP DP  RH WIND       PRES   REMARKS
RAPID CTY ARPT CLOUDY    64  56  75 SW16      30.26R THUNDER
PIERRE         CLOUDY    65  60  84 SE6       30.23R
CUSTER         MOCLDY    56  55  97 CALM      30.42F
ELLSWORTH AFB  TSTM      64  57  77 SW13      30.24R
PHILIP         CLOUDY    69  59  70 S12       30.19F
PINE RIDGE     TSTM      68  60  75 N17G30    30.42R
WINNER         FAIR      67  58  72 SE7       30.23S
$$

SDZ004>011-016>023-039-040-231000-
NORTHEAST SOUTH DAKOTA

CITY           SKY/WX    TMP DP  RH WIND       PRES   REMARKS
ABERDEEN       CLEAR     59  57  93 CALM      30.26R
WATERTOWN      CLEAR     56  54  93 CALM      30.26S
SISSETON         N/A     57  56  96 N3        30.25S
$$

SDZ017-020-022-023-036>040-048>070-231000-
SOUTHEAST SOUTH DAKOTA

CITY           SKY/WX    TMP DP  RH WIND       PRES   REMARKS
SIOUX FALLS    CLEAR     60  56  86 NE3       30.23F
HURON          CLEAR     61  58  90 E5        30.24R
CHAMBERLAIN    MOCLDY    62  59  90 E6        30.24S
MITCHELL       CLEAR     62  58  86 E5        30.24S
YANKTON        PTCLDY    63  57  82 CALM      30.22F
$$

ABBREVIATIONS USED IN REMARKS
   TC - TEMPERATURE IN CELSIUS
  WCI - WIND CHILL INDEX
   HX - HEAT INDEX
  VSB - VISIBILITY



USA.gov is the U.S. government's official web portal to all federal, state and local government web resources and services.